| time (UTC) | temp F | wind direction | speed MPH | gust MPH | rain 1hr in | rain 24hr in | rain mn in | humidity % | barometer mb |
| 20260506204204 | 59 | 17 | 1.0 | 3.0 | 0.00 | 0.03 | 0.03 | 54 | 1012.3 |
| 20260506203703 | 59 | 17 | 0.0 | 2.0 | 0.00 | 0.03 | 0.03 | 53 | 1012.4 |
| 20260506203204 | 59 | 10 | 1.0 | 3.0 | 0.00 | 0.03 | 0.03 | 52 | 1012.5 |
| 20260506202704 | 59 | 110 | 1.0 | 2.0 | 0.00 | 0.03 | 0.03 | 53 | 1012.5 |
| 20260506202204 | 59 | 111 | 0.0 | 1.0 | 0.00 | 0.03 | 0.03 | 53 | 1012.5 |
| 20260506201704 | 59 | 120 | 0.0 | 2.0 | 0.00 | 0.03 | 0.03 | 53 | 1012.4 |
| 20260506201203 | 59 | 40 | 0.0 | 2.0 | 0.00 | 0.03 | 0.03 | 54 | 1012.3 |
| 20260506200703 | 59 | 134 | 1.0 | 3.0 | 0.00 | 0.03 | 0.03 | 52 | 1012.5 |
| 20260506200204 | 59 | 63 | 0.0 | 0.0 | 0.00 | 0.03 | 0.03 | 51 | 1012.4 |
| 20260506195704 | 59 | 96 | 0.0 | 2.0 | 0.00 | 0.03 | 0.03 | 52 | 1012.5 |
| 20260506195204 | 59 | 21 | 1.0 | 3.0 | 0.00 | 0.03 | 0.03 | 50 | 1012.5 |
| 20260506194204 | 59 | 123 | 0.0 | 0.0 | 0.00 | 0.03 | 0.03 | 51 | 1012.4 |
| 20260506193704 | 60 | 96 | 0.0 | 2.0 | 0.00 | 0.03 | 0.03 | 52 | 1012.4 |
| 20260506193204 | 60 | 109 | 1.0 | 3.0 | 0.00 | 0.03 | 0.03 | 52 | 1012.2 |
| 20260506192703 | 60 | 82 | 1.0 | 2.0 | 0.00 | 0.03 | 0.03 | 54 | 1012.1 |
| 20260506191204 | 60 | 119 | 2.0 | 5.0 | 0.00 | 0.03 | 0.03 | 53 | 1012.0 |
| 20260506190703 | 61 | 91 | 2.0 | 9.0 | 0.00 | 0.03 | 0.03 | 54 | 1012.1 |
| 20260506190203 | 61 | 89 | 2.0 | 9.0 | 0.00 | 0.03 | 0.03 | 53 | 1011.9 |
| 20260506185703 | 60 | 127 | 0.0 | 6.0 | 0.00 | 0.03 | 0.03 | 54 | 1011.8 |
| 20260506185205 | 60 | 108 | 1.0 | 3.0 | 0.00 | 0.03 | 0.03 | 53 | 1011.9 |
| 20260506184703 | 60 | 134 | 1.0 | 6.0 | 0.00 | 0.03 | 0.03 | 55 | 1012.0 |
| 20260506183705 | 60 | 75 | 1.0 | 7.0 | 0.00 | 0.03 | 0.03 | 54 | 1011.7 |
| 20260506182203 | 60 | 106 | 2.0 | 5.0 | 0.00 | 0.03 | 0.03 | 54 | 1011.9 |
| 20260506181705 | 60 | 87 | 1.0 | 5.0 | 0.00 | 0.03 | 0.03 | 54 | 1011.8 |
| 20260506181203 | 60 | 88 | 2.0 | 8.0 | 0.00 | 0.03 | 0.03 | 53 | 1011.9 |
| 20260506175704 | 60 | 58 | 1.0 | 5.0 | 0.00 | 0.03 | 0.03 | 52 | 1012.1 |
| 20260506175203 | 60 | 86 | 1.0 | 2.0 | 0.00 | 0.03 | 0.03 | 55 | 1012.2 |
| 20260506174703 | 59 | 88 | 0.0 | 1.0 | 0.00 | 0.03 | 0.03 | 54 | 1012.2 |
| 20260506174203 | 59 | 127 | 1.0 | 3.0 | 0.00 | 0.03 | 0.03 | 53 | 1012.3 |
| 20260506173204 | 59 | 90 | 1.0 | 6.0 | 0.00 | 0.03 | 0.03 | 55 | 1012.4 |
| 20260506172703 | 59 | 73 | 3.0 | 12.0 | 0.00 | 0.03 | 0.03 | 53 | 1012.2 |
| 20260506171203 | 59 | 40 | 1.0 | 6.0 | 0.00 | 0.03 | 0.03 | 58 | 1012.4 |
| 20260506170703 | 59 | 43 | 1.0 | 5.0 | 0.00 | 0.03 | 0.03 | 59 | 1012.6 |
| 20260506170204 | 59 | 26 | 0.0 | 2.0 | 0.00 | 0.03 | 0.03 | 59 | 1012.6 |
| 20260506165705 | 59 | 68 | 0.0 | 5.0 | 0.00 | 0.03 | 0.03 | 58 | 1012.4 |
| 20260506164203 | 59 | 340 | 2.0 | 8.0 | 0.00 | 0.03 | 0.03 | 60 | 1012.5 |
| 20260506163704 | 58 | 230 | 1.0 | 3.0 | 0.00 | 0.03 | 0.03 | 59 | 1012.5 |
| 20260506162704 | 58 | 4 | 1.0 | 3.0 | 0.00 | 0.03 | 0.03 | 60 | 1012.5 |
| 20260506162205 | 58 | 353 | 1.0 | 3.0 | 0.00 | 0.03 | 0.03 | 59 | 1012.6 |
| 20260506161703 | 58 | 11 | 2.0 | 7.0 | 0.00 | 0.03 | 0.03 | 62 | 1012.6 |
| 20260506161204 | 57 | 253 | 1.0 | 3.0 | 0.00 | 0.03 | 0.03 | 64 | 1012.5 |
| 20260506160703 | 57 | 103 | 1.0 | 5.0 | 0.01 | 0.03 | 0.03 | 63 | 1012.4 |
| 20260506160204 | 56 | 140 | 0.0 | 2.0 | 0.01 | 0.03 | 0.03 | 63 | 1012.4 |
| 20260506155703 | 56 | 24 | 0.0 | 2.0 | 0.01 | 0.03 | 0.03 | 59 | 1012.3 |
| 20260506155204 | 55 | 13 | 2.0 | 6.0 | 0.01 | 0.03 | 0.03 | 63 | 1012.3 |
| 20260506154704 | 55 | 43 | 1.0 | 5.0 | 0.01 | 0.03 | 0.03 | 64 | 1012.2 |
| 20260506154203 | 55 | 103 | 1.0 | 2.0 | 0.01 | 0.03 | 0.03 | 66 | 1012.1 |
| 20260506153203 | 54 | 26 | 1.0 | 7.0 | 0.01 | 0.03 | 0.03 | 67 | 1012.4 |
| 20260506152704 | 54 | 147 | 0.0 | 2.0 | 0.01 | 0.03 | 0.03 | 67 | 1012.6 |
| 20260506152203 | 54 | 35 | 1.0 | 7.0 | 0.01 | 0.03 | 0.03 | 66 | 1012.6 |
| 20260506151705 | 54 | 139 | 1.0 | 8.0 | 0.01 | 0.03 | 0.03 | 64 | 1012.6 |
| 20260506151204 | 53 | 144 | 2.0 | 8.0 | 0.01 | 0.03 | 0.03 | 68 | 1012.3 |
| 20260506150704 | 53 | 137 | 0.0 | 5.0 | 0.00 | 0.02 | 0.02 | 70 | 1012.0 |
| 20260506150203 | 53 | 41 | 0.0 | 5.0 | 0.00 | 0.02 | 0.02 | 70 | 1012.0 |
| 20260506145704 | 52 | 11 | 1.0 | 6.0 | 0.00 | 0.02 | 0.02 | 71 | 1012.0 |
| 20260506145203 | 52 | 17 | 1.0 | 3.0 | 0.00 | 0.02 | 0.02 | 73 | 1011.7 |
| 20260506144704 | 51 | 23 | 0.0 | 2.0 | 0.00 | 0.02 | 0.02 | 73 | 1011.6 |
| 20260506144204 | 51 | 151 | 1.0 | 5.0 | 0.00 | 0.02 | 0.02 | 75 | 1011.5 |
| 20260506143704 | 51 | 15 | 1.0 | 5.0 | 0.00 | 0.02 | 0.02 | 77 | 1011.3 |
| 20260506142704 | 51 | 152 | 1.0 | 3.0 | 0.00 | 0.02 | 0.02 | 77 | 1011.3 |
| 20260506142203 | 51 | 153 | 0.0 | 0.0 | 0.00 | 0.02 | 0.02 | 77 | 1011.4 |
| 20260506141703 | 51 | 5 | 0.0 | 0.0 | 0.00 | 0.02 | 0.02 | 78 | 1011.4 |
| 20260506141203 | 50 | 163 | 0.0 | 2.0 | 0.00 | 0.02 | 0.02 | 79 | 1011.4 |
| 20260506140705 | 50 | 133 | 0.0 | 3.0 | 0.00 | 0.02 | 0.02 | 79 | 1011.4 |
| 20260506140204 | 50 | 51 | 0.0 | 1.0 | 0.00 | 0.02 | 0.02 | 80 | 1011.4 |
| 20260506135705 | 50 | 159 | 1.0 | 5.0 | 0.00 | 0.02 | 0.02 | 81 | 1011.4 |
| 20260506135204 | 49 | 38 | 0.0 | 5.0 | 0.00 | 0.02 | 0.02 | 83 | 1011.2 |
| 20260506134704 | 49 | 170 | 0.0 | 5.0 | 0.00 | 0.02 | 0.02 | 83 | 1011.2 |
| 20260506134204 | 48 | 18 | 1.0 | 5.0 | 0.00 | 0.02 | 0.02 | 83 | 1011.3 |
| 20260506133704 | 48 | 147 | 0.0 | 1.0 | 0.00 | 0.02 | 0.02 | 84 | 1011.2 |
| 20260506133204 | 48 | 191 | 0.0 | 1.0 | 0.00 | 0.02 | 0.02 | 85 | 1011.1 |
| 20260506132704 | 47 | 176 | 0.0 | 6.0 | 0.00 | 0.02 | 0.02 | 85 | 1011.1 |
| 20260506132205 | 47 | 179 | 0.0 | 0.0 | 0.00 | 0.02 | 0.02 | 86 | 1011.0 |
| 20260506131204 | 47 | 186 | 1.0 | 5.0 | 0.00 | 0.02 | 0.02 | 87 | 1010.6 |
| 20260506130704 | 47 | 107 | 0.0 | 1.0 | 0.00 | 0.02 | 0.02 | 88 | 1010.7 |
| 20260506130205 | 46 | 17 | 0.0 | 0.0 | 0.00 | 0.02 | 0.02 | 88 | 1010.9 |
| 20260506125203 | 46 | 122 | 0.0 | 0.0 | 0.00 | 0.02 | 0.02 | 90 | 1010.9 |
| 20260506124204 | 46 | 195 | 0.0 | 1.0 | 0.00 | 0.02 | 0.02 | 90 | 1010.6 |
| 20260506123704 | 46 | 195 | 0.0 | 0.0 | 0.00 | 0.02 | 0.02 | 90 | 1010.7 |
| 20260506123208 | 45 | 198 | 0.0 | 3.0 | 0.00 | 0.02 | 0.02 | 91 | 1010.7 |
| 20260506122704 | 45 | 191 | 0.0 | 3.0 | 0.00 | 0.02 | 0.02 | 91 | 1010.6 |
| 20260506120704 | 45 | 12 | 0.0 | 0.0 | 0.00 | 0.02 | 0.02 | 92 | 1010.2 |
| 20260506120205 | 45 | 9 | 0.0 | 1.0 | 0.00 | 0.02 | 0.02 | 92 | 1010.0 |
| 20260506115704 | 45 | 214 | 0.0 | 0.0 | 0.00 | 0.02 | 0.02 | 92 | 1010.0 |
| 20260506115204 | 44 | 0 | 0.0 | 0.0 | 0.00 | 0.02 | 0.02 | 92 | 1009.8 |
| 20260506113205 | 44 | 216 | 0.0 | 0.0 | 0.00 | 0.02 | 0.02 | 92 | 1009.3 |
| 20260506112704 | 44 | 215 | 0.0 | 0.0 | 0.00 | 0.02 | 0.02 | 92 | 1009.3 |
| 20260506112203 | 44 | 223 | 0.0 | 2.0 | 0.00 | 0.02 | 0.02 | 92 | 1009.2 |
| 20260506111705 | 44 | 351 | 0.0 | 2.0 | 0.00 | 0.02 | 0.02 | 92 | 1009.0 |
| 20260506111204 | 44 | 232 | 0.0 | 3.0 | 0.00 | 0.02 | 0.02 | 92 | 1009.0 |
| 20260506110704 | 44 | 11 | 1.0 | 3.0 | 0.00 | 0.02 | 0.02 | 92 | 1009.1 |
| 20260506110203 | 44 | 219 | 0.0 | 0.0 | 0.00 | 0.02 | 0.02 | 92 | 1009.3 |
| 20260506105705 | 44 | 24 | 0.0 | 2.0 | 0.00 | 0.02 | 0.02 | 92 | 1009.1 |
| 20260506105204 | 44 | 19 | 0.0 | 1.0 | 0.00 | 0.02 | 0.02 | 92 | 1008.8 |
| 20260506104705 | 44 | 244 | 1.0 | 6.0 | 0.00 | 0.02 | 0.02 | 92 | 1008.1 |
| 20260506104204 | 45 | 220 | 0.0 | 3.0 | 0.00 | 0.02 | 0.02 | 92 | 1008.3 |
| 20260506103705 | 45 | 218 | 0.0 | 1.0 | 0.00 | 0.02 | 0.02 | 92 | 1008.4 |
| 20260506103204 | 45 | 199 | 0.0 | 0.0 | 0.00 | 0.02 | 0.02 | 92 | 1008.8 |
| 20260506102704 | 45 | 179 | 0.0 | 2.0 | 0.00 | 0.02 | 0.02 | 92 | 1008.9 |
| 20260506102204 | 45 | 155 | 0.0 | 2.0 | 0.00 | 0.02 | 0.02 | 92 | 1008.9 |
| 20260506101703 | 45 | 212 | 0.0 | 1.0 | 0.00 | 0.02 | 0.02 | 92 | 1008.6 |
| 20260506101205 | 45 | 9 | 0.0 | 0.0 | 0.00 | 0.02 | 0.02 | 92 | 1008.1 |
| 20260506100203 | 45 | 5 | 0.0 | 0.0 | 0.00 | 0.02 | 0.02 | 92 | 1007.8 |
| 20260506095704 | 45 | 5 | 0.0 | 0.0 | 0.00 | 0.03 | 0.02 | 92 | 1007.9 |
| 20260506095204 | 45 | 5 | 0.0 | 0.0 | 0.00 | 0.03 | 0.02 | 92 | 1007.9 |
| 20260506094704 | 45 | 5 | 0.0 | 0.0 | 0.00 | 0.03 | 0.02 | 92 | 1007.8 |
| 20260506094205 | 45 | 0 | 0.0 | 0.0 | 0.00 | 0.03 | 0.02 | 92 | 1007.8 |
| 20260506093704 | 45 | 134 | 0.0 | 1.0 | 0.00 | 0.03 | 0.02 | 92 | 1008.0 |
| 20260506093204 | 45 | 207 | 0.0 | 3.0 | 0.00 | 0.03 | 0.02 | 92 | 1008.1 |
| 20260506092705 | 45 | 194 | 0.0 | 3.0 | 0.00 | 0.03 | 0.02 | 92 | 1008.1 |
| 20260506092204 | 45 | 12 | 0.0 | 0.0 | 0.00 | 0.03 | 0.02 | 92 | 1007.7 |
| 20260506091704 | 45 | 3 | 0.0 | 2.0 | 0.00 | 0.03 | 0.02 | 92 | 1007.4 |
| 20260506090204 | 45 | 13 | 0.0 | 1.0 | 0.00 | 0.03 | 0.02 | 92 | 1007.2 |
| 20260506085704 | 45 | 16 | 0.0 | 2.0 | 0.00 | 0.03 | 0.02 | 92 | 1007.1 |
| 20260506085204 | 45 | 5 | 0.0 | 0.0 | 0.00 | 0.03 | 0.02 | 92 | 1007.3 |
| 20260506084205 | 45 | 18 | 1.0 | 6.0 | 0.00 | 0.03 | 0.02 | 92 | 1007.6 |
| 20260506083704 | 45 | 21 | 0.0 | 2.0 | 0.00 | 0.03 | 0.02 | 92 | 1007.6 |
| 20260506083205 | 45 | 33 | 0.0 | 6.0 | 0.00 | 0.03 | 0.02 | 92 | 1007.5 |
| 20260506082704 | 46 | 193 | 2.0 | 6.0 | 0.00 | 0.03 | 0.02 | 92 | 1007.3 |
| 20260506082204 | 46 | 195 | 1.0 | 3.0 | 0.00 | 0.03 | 0.02 | 92 | 1007.2 |
| 20260506081704 | 46 | 196 | 0.0 | 5.0 | 0.00 | 0.03 | 0.02 | 92 | 1007.1 |
| 20260506081203 | 46 | 0 | 2.0 | 8.0 | 0.00 | 0.03 | 0.02 | 92 | 1006.9 |
| 20260506080705 | 46 | 359 | 2.0 | 5.0 | 0.00 | 0.03 | 0.02 | 92 | 1007.1 |
| 20260506080203 | 47 | 188 | 2.0 | 5.0 | 0.00 | 0.03 | 0.02 | 92 | 1007.0 |
| 20260506073204 | 47 | 157 | 1.0 | 3.0 | 0.00 | 0.03 | 0.02 | 92 | 1006.9 |
| 20260506072704 | 47 | 197 | 0.0 | 2.0 | 0.00 | 0.03 | 0.02 | 92 | 1006.9 |
| 20260506072204 | 47 | 189 | 0.0 | 2.0 | 0.00 | 0.03 | 0.02 | 92 | 1007.1 |
| 20260506071204 | 47 | 178 | 0.0 | 3.0 | 0.00 | 0.03 | 0.02 | 92 | 1006.8 |
| 20260506070704 | 48 | 18 | 1.0 | 3.0 | 0.00 | 0.03 | 0.02 | 92 | 1006.6 |
| 20260506070204 | 48 | 172 | 0.0 | 7.0 | 0.00 | 0.03 | 0.02 | 92 | 1006.6 |
| 20260506062204 | 48 | 178 | 1.0 | 3.0 | 0.00 | 0.03 | 0.02 | 91 | 1006.1 |
| 20260506061704 | 49 | 9 | 1.0 | 5.0 | 0.00 | 0.03 | 0.02 | 91 | 1005.9 |
| 20260506061204 | 49 | 174 | 1.0 | 3.0 | 0.00 | 0.03 | 0.02 | 91 | 1006.0 |
| 20260506060704 | 49 | 9 | 1.0 | 3.0 | 0.02 | 0.03 | 0.02 | 91 | 1006.1 |
| 20260506060204 | 50 | 357 | 0.0 | 0.0 | 0.02 | 0.03 | 0.02 | 91 | 1006.2 |
| 20260506051204 | 53 | 14 | 0.0 | 3.0 | 0.02 | 0.03 | 0.02 | 90 | 1006.1 |
| 20260506050705 | 54 | 26 | 0.0 | 5.0 | 0.00 | 0.01 | 0.00 | 90 | 1006.0 |
| 20260506050204 | 54 | 166 | 1.0 | 2.0 | 0.00 | 0.01 | 0.00 | 90 | 1005.7 |
| 20260506044705 | 56 | 138 | 0.0 | 5.0 | 0.00 | 0.01 | 0.00 | 90 | 1005.7 |
| 20260506044204 | 57 | 162 | 0.0 | 5.0 | 0.00 | 0.01 | 0.00 | 90 | 1005.4 |
| 20260506043704 | 58 | 137 | 1.0 | 3.0 | 0.00 | 0.01 | 0.00 | 91 | 1005.4 |
| 20260506043204 | 59 | 155 | 0.0 | 0.0 | 0.00 | 0.01 | 0.00 | 92 | 1005.4 |
| 20260506042704 | 59 | 90 | 0.0 | 0.0 | 0.00 | 0.01 | 0.00 | 93 | 1005.4 |
| 20260506042204 | 59 | 91 | 0.0 | 0.0 | 0.00 | 0.01 | 0.00 | 93 | 1005.4 |
| 20260506041705 | 59 | 90 | 0.0 | 0.0 | 0.00 | 0.01 | 0.00 | 93 | 1005.5 |
| 20260506041205 | 59 | 91 | 0.0 | 0.0 | 0.00 | 0.01 | 0.00 | 93 | 1005.5 |
| 20260506040204 | 60 | 61 | 0.0 | 0.0 | 0.00 | 0.01 | 0.00 | 93 | 1005.3 |
| 20260506035704 | 60 | 58 | 0.0 | 0.0 | 0.00 | 0.01 | 0.01 | 93 | 1005.2 |
| 20260506035204 | 60 | 59 | 0.0 | 0.0 | 0.00 | 0.01 | 0.01 | 93 | 1005.3 |
| 20260506034704 | 60 | 59 | 0.0 | 0.0 | 0.00 | 0.01 | 0.01 | 93 | 1005.3 |
| 20260506034204 | 60 | 51 | 0.0 | 0.0 | 0.00 | 0.01 | 0.01 | 93 | 1005.4 |
| 20260506033705 | 60 | 51 | 0.0 | 0.0 | 0.00 | 0.01 | 0.01 | 93 | 1005.4 |
| 20260506033205 | 60 | 57 | 0.0 | 0.0 | 0.00 | 0.01 | 0.01 | 93 | 1005.3 |
| 20260506032704 | 60 | 105 | 0.0 | 0.0 | 0.00 | 0.01 | 0.01 | 93 | 1005.4 |
| 20260506032204 | 60 | 106 | 0.0 | 0.0 | 0.00 | 0.01 | 0.01 | 93 | 1005.5 |
| 20260506031204 | 60 | 106 | 0.0 | 0.0 | 0.00 | 0.01 | 0.01 | 93 | 1005.6 |
| 20260506030704 | 60 | 106 | 0.0 | 0.0 | 0.00 | 0.01 | 0.01 | 93 | 1005.7 |
| 20260506030205 | 60 | 105 | 0.0 | 0.0 | 0.00 | 0.01 | 0.01 | 92 | 1005.8 |
| 20260506025704 | 60 | 106 | 0.0 | 0.0 | 0.00 | 0.01 | 0.01 | 92 | 1005.7 |
| 20260506025203 | 60 | 105 | 0.0 | 0.0 | 0.00 | 0.01 | 0.01 | 92 | 1005.7 |
| 20260506024203 | 60 | 106 | 0.0 | 0.0 | 0.00 | 0.01 | 0.01 | 92 | 1006.3 |
| 20260506023704 | 60 | 105 | 0.0 | 0.0 | 0.00 | 0.01 | 0.01 | 92 | 1006.4 |
| 20260506023204 | 60 | 106 | 0.0 | 0.0 | 0.00 | 0.01 | 0.01 | 92 | 1006.5 |
| 20260506022705 | 60 | 105 | 0.0 | 0.0 | 0.00 | 0.01 | 0.01 | 92 | 1006.6 |
| 20260506022205 | 60 | 104 | 0.0 | 0.0 | 0.00 | 0.01 | 0.01 | 92 | 1006.5 |
| 20260506021705 | 60 | 104 | 0.0 | 0.0 | 0.00 | 0.01 | 0.01 | 92 | 1006.5 |
| 20260506021204 | 60 | 104 | 0.0 | 0.0 | 0.00 | 0.01 | 0.01 | 92 | 1006.4 |
| 20260506020703 | 60 | 104 | 0.0 | 0.0 | 0.00 | 0.01 | 0.01 | 92 | 1006.5 |
| 20260506020204 | 60 | 104 | 0.0 | 0.0 | 0.00 | 0.01 | 0.01 | 92 | 1006.4 |
| 20260506014704 | 60 | 103 | 0.0 | 0.0 | 0.00 | 0.01 | 0.01 | 92 | 1006.5 |
| 20260506013703 | 60 | 103 | 0.0 | 0.0 | 0.00 | 0.01 | 0.01 | 92 | 1006.3 |
| 20260506013204 | 60 | 103 | 0.0 | 0.0 | 0.00 | 0.01 | 0.01 | 92 | 1006.3 |
| 20260506012703 | 60 | 105 | 0.0 | 0.0 | 0.00 | 0.01 | 0.01 | 92 | 1006.2 |
| 20260506011204 | 60 | 102 | 0.0 | 0.0 | 0.00 | 0.01 | 0.01 | 92 | 1006.2 |
| 20260506010203 | 61 | 103 | 0.0 | 0.0 | 0.00 | 0.01 | 0.01 | 92 | 1006.4 |
| 20260506004704 | 61 | 104 | 0.0 | 2.0 | 0.00 | 0.01 | 0.01 | 91 | 1006.0 |
| 20260506004204 | 61 | 110 | 0.0 | 0.0 | 0.00 | 0.01 | 0.01 | 91 | 1005.9 |
| 20260506003704 | 61 | 109 | 0.0 | 0.0 | 0.00 | 0.01 | 0.01 | 91 | 1005.9 |
| 20260506003205 | 61 | 109 | 0.0 | 0.0 | 0.00 | 0.01 | 0.01 | 91 | 1005.8 |
| 20260506002704 | 61 | 111 | 0.0 | 2.0 | 0.00 | 0.01 | 0.01 | 91 | 1005.9 |
| 20260506002204 | 61 | 109 | 1.0 | 3.0 | 0.00 | 0.01 | 0.01 | 91 | 1005.8 |
| 20260506001704 | 61 | 96 | 0.0 | 1.0 | 0.00 | 0.01 | 0.01 | 91 | 1005.7 |
| 20260506001204 | 61 | 76 | 0.0 | 0.0 | 0.00 | 0.01 | 0.01 | 91 | 1005.5 |
| 20260506000704 | 61 | 74 | 0.0 | 0.0 | 0.00 | 0.01 | 0.01 | 91 | 1005.3 |
| 20260506000205 | 61 | 80 | 0.0 | 0.0 | 0.00 | 0.01 | 0.01 | 91 | 1005.4 |
| 20260505235704 | 61 | 83 | 0.0 | 0.0 | 0.00 | 0.01 | 0.01 | 91 | 1005.5 |
| 20260505235204 | 61 | 82 | 0.0 | 0.0 | 0.00 | 0.01 | 0.01 | 91 | 1005.7 |
| 20260505234705 | 61 | 95 | 0.0 | 0.0 | 0.00 | 0.01 | 0.01 | 91 | 1005.6 |
| 20260505234204 | 61 | 93 | 0.0 | 0.0 | 0.00 | 0.01 | 0.01 | 91 | 1005.8 |
| 20260505233704 | 61 | 100 | 0.0 | 0.0 | 0.00 | 0.01 | 0.01 | 91 | 1005.8 |
| 20260505232704 | 61 | 89 | 1.0 | 2.0 | 0.00 | 0.01 | 0.01 | 91 | 1005.8 |
| 20260505231705 | 61 | 58 | 0.0 | 2.0 | 0.00 | 0.01 | 0.01 | 91 | 1005.8 |
| 20260505230704 | 61 | 70 | 0.0 | 2.0 | 0.00 | 0.01 | 0.01 | 91 | 1005.9 |
| 20260505225704 | 61 | 104 | 0.0 | 6.0 | 0.00 | 0.01 | 0.01 | 91 | 1006.0 |
| 20260505225204 | 61 | 88 | 1.0 | 6.0 | 0.00 | 0.01 | 0.01 | 91 | 1006.0 |
| 20260505224703 | 61 | 78 | 0.0 | 1.0 | 0.00 | 0.01 | 0.01 | 91 | 1006.1 |
| 20260505224205 | 61 | 78 | 0.0 | 3.0 | 0.00 | 0.01 | 0.01 | 91 | 1006.2 |
| 20260505223704 | 61 | 73 | 0.0 | 0.0 | 0.00 | 0.01 | 0.01 | 91 | 1006.3 |
| 20260505222204 | 61 | 67 | 0.0 | 6.0 | 0.00 | 0.01 | 0.01 | 91 | 1006.4 |
| 20260505221203 | 61 | 89 | 0.0 | 2.0 | 0.00 | 0.01 | 0.01 | 91 | 1006.7 |
| 20260505220705 | 61 | 93 | 0.0 | 3.0 | 0.00 | 0.01 | 0.01 | 91 | 1006.7 |
| 20260505220204 | 61 | 71 | 0.0 | 1.0 | 0.00 | 0.01 | 0.01 | 91 | 1006.8 |
| 20260505215704 | 61 | 88 | 0.0 | 5.0 | 0.00 | 0.01 | 0.01 | 91 | 1006.9 |
| 20260505215203 | 61 | 89 | 1.0 | 5.0 | 0.00 | 0.01 | 0.01 | 91 | 1007.0 |
| 20260505214204 | 61 | 81 | 0.0 | 6.0 | 0.00 | 0.01 | 0.01 | 91 | 1006.9 |
| 20260505213704 | 61 | 82 | 2.0 | 6.0 | 0.00 | 0.01 | 0.01 | 91 | 1006.9 |
| 20260505213204 | 61 | 113 | 1.0 | 2.0 | 0.00 | 0.01 | 0.01 | 91 | 1006.8 |
| 20260505212704 | 61 | 91 | 1.0 | 3.0 | 0.00 | 0.01 | 0.01 | 91 | 1006.9 |
| 20260505211704 | 62 | 95 | 0.0 | 2.0 | 0.00 | 0.01 | 0.01 | 90 | 1007.0 |
| 20260505211204 | 62 | 90 | 1.0 | 6.0 | 0.00 | 0.01 | 0.01 | 90 | 1007.0 |
| 20260505210703 | 62 | 93 | 2.0 | 6.0 | 0.00 | 0.01 | 0.01 | 90 | 1006.9 |
| 20260505205704 | 62 | 86 | 2.0 | 12.0 | 0.00 | 0.01 | 0.01 | 90 | 1006.9 |
| 20260505205205 | 62 | 91 | 2.0 | 5.0 | 0.00 | 0.01 | 0.01 | 90 | 1006.9 |
| 20260505204704 | 62 | 91 | 2.0 | 6.0 | 0.00 | 0.01 | 0.01 | 90 | 1007.0 |